Date,TemperatureHighF,TemperatureAvgF,TemperatureLowF,DewpointHighF,DewpointAvgF,DewpointLowF,HumidityHigh,HumidityAvg,HumidityLow,PressureMaxIn,PressureMinIn,WindSpeedMaxMPH,WindSpeedAvgMPH,GustSpeedMaxMPH,PrecipitationSumIn
2013-8-1,83.8,78.9,73.0,70.5,69.2,67.4,87,73,62,30.05,29.98,9,6,15,0.01
2013-8-2,83.4,77.8,73.3,71.8,69.3,67.3,85,75,64,30.03,29.95,9,4,13,0.01
2013-8-3,83.2,77.6,73.0,71.1,69.0,67.2,88,75,63,30.02,29.94,8,4,17,0.06
2013-8-4,84.3,77.2,71.3,72.3,69.4,67.0,89,78,62,30.01,29.92,8,4,14,0.04
2013-8-5,84.3,77.0,72.2,73.3,70.8,68.4,92,81,66,30.00,29.91,9,4,17,0.18
2013-8-6,83.2,77.8,74.0,71.3,69.0,67.6,83,75,62,30.01,29.93,7,4,15,0.00
2013-8-7,84.2,77.5,73.2,70.1,68.2,66.7,83,74,59,30.04,29.96,7,4,13,0.00
2013-8-8,83.6,77.5,72.1,71.5,68.7,67.0,84,75,63,30.05,29.96,9,4,12,0.00
2013-8-9,84.5,76.0,72.0,74.9,70.3,67.0,95,83,63,30.03,29.93,11,5,19,0.68
2013-8-10,81.9,76.4,72.3,74.1,72.4,70.9,96,88,75,30.00,29.92,11,6,22,1.12
2013-8-11,83.6,78.0,73.9,74.7,72.0,69.7,92,82,71,30.01,29.95,9,6,18,0.04
2013-8-12,82.1,77.9,74.9,71.4,69.6,67.4,83,76,67,30.05,29.97,9,6,15,0.00
2013-8-13,83.8,77.8,74.4,72.0,69.6,67.2,85,76,60,30.02,29.94,8,5,15,0.00
2013-8-14,83.1,77.8,73.9,70.6,68.9,67.2,82,74,61,30.01,29.91,10,6,18,0.00
2013-8-15,83.5,77.6,73.6,70.7,68.9,67.3,83,75,59,30.01,29.94,10,5,15,0.00
2013-8-16,81.6,76.8,73.4,72.5,69.9,67.1,86,79,71,30.02,29.94,9,5,19,0.01
2013-8-17,82.3,78.0,73.8,70.4,68.2,64.7,80,72,62,30.01,29.92,11,6,17,0.00
2013-8-18,84.2,78.1,74.7,72.0,68.8,66.7,81,73,63,30.01,29.92,8,4,14,0.00
2013-8-19,82.3,76.8,72.0,71.0,67.8,65.2,81,74,62,30.00,29.92,7,3,11,0.00
2013-8-20,86.4,78.0,71.7,72.5,69.7,66.3,91,76,61,29.97,29.88,6,2,11,0.00
2013-8-21,85.1,78.5,71.7,73.1,70.0,65.6,84,76,64,29.96,29.87,6,2,13,0.00
2013-8-22,86.2,79.9,75.2,72.8,70.8,68.9,85,74,58,29.97,29.88,7,3,12,0.00
2013-8-23,84.9,78.2,71.7,72.4,69.9,67.6,92,76,60,29.98,29.89,8,4,12,0.01
2013-8-24,84.2,78.4,74.2,72.3,69.7,67.9,84,75,61,30.02,29.92,8,4,15,0.00
2013-8-25,83.8,78.6,75.3,72.8,70.0,68.4,87,75,62,30.05,29.97,9,5,16,0.01
2013-8-26,84.4,78.7,76.0,71.8,69.8,68.3,82,74,60,30.07,30.00,9,6,17,0.00
2013-8-27,83.7,78.1,74.3,70.9,68.7,66.3,86,73,59,30.07,29.98,7,5,15,0.01
2013-8-28,81.6,77.5,72.9,72.0,70.1,67.3,88,78,65,30.00,29.89,8,4,12,0.02
2013-8-29,83.8,77.7,71.3,72.3,70.0,67.1,89,78,66,29.94,29.86,7,3,12,0.02
2013-8-30,84.3,77.8,71.5,73.6,69.9,66.8,90,77,65,30.01,29.91,7,3,13,0.06
2013-8-31,84.1,77.5,72.1,72.1,69.6,67.3,91,77,60,30.02,29.91,10,5,14,0.12